Regional Weather Roundup
Issued by NWS Little Rock, AR

Home | Current Version | Previous Version | Graphics & Text | Print | Product List | Glossary On
Versions: 1 2 3 4 5 6 7 8 9 10 11 12 13 14 15 16 17 18 19 20 21 22 23 24 25 26 27 28 29 30 31 32 33 34 35 36 37 38 39 40 41 42 43 44 45 46 47 48 49 50
000
ASUS44 KLZK 020805
RWRLZK

WEATHER ROUNDUP FOR ARKANSAS
NATIONAL WEATHER SERVICE LITTLE ROCK AR
300 AM CDT WED SEP 02 2015

NOTE: "FAIR" INDICATES FEW OR NO CLOUDS BELOW 12,000 FEET WITH NO
SIGNIFICANT WEATHER AND/OR OBSTRUCTIONS TO VISIBILITY.

ARZ001-003-010-029-020900-
NORTHWEST ARKANSAS

CITY           SKY/WX    TMP DP  RH WIND       PRES   REMARKS
FAYETTEVILLE   CLEAR     67  67 100 CALM      30.09S
FORT SMITH     CLEAR     73  66  78 NE5       30.05R
HARRISON       CLEAR     65  64  97 SE5       30.10F
BENTONVILLE    CLEAR     70  63  78 CALM      30.09S
ROGERS         CLEAR     71  66  84 SE8       30.09F
SILOAM SPGS    CLEAR     70  61  73 SE6       30.06S
HIGHFILL       CLEAR     70  67  90 S3        30.08
$$

ARZ004-005-016-020900-
NORTH CENTRAL ARKANSAS

CITY           SKY/WX    TMP DP  RH WIND       PRES   REMARKS
BATESVILLE     CLEAR     72  70  94 CALM      30.07S
FLIPPIN        CLEAR     66  63  88 CALM      30.06F
MTN HOME       CLEAR     69  68  96 SE3       30.08F FOG
$$

ARZ040-041-020900-
WEST CENTRAL ARKANSAS

CITY           SKY/WX    TMP DP  RH WIND       PRES   REMARKS
MENA           CLEAR     68  66  94 CALM      30.09S
MOUNT IDA      CLEAR     68  66  93 CALM      30.06S FOG
$$

ARZ009-017-025-026-028-020900-
NORTHEAST ARKANSAS

CITY           SKY/WX    TMP DP  RH WIND       PRES   REMARKS
JONESBORO      MOCLDY    72  70  93 E3        30.06F
NEWPORT        PTCLDY    73  71  93 CALM      30.07S
WALNUT RIDGE   PTCLDY    72  66  83 CALM      30.07S
BLYTHEVILLE    MOCLDY    75  73  93 CALM      30.07S
$$

ARZ022-023-033-042-044-020900-
CENTRAL ARKANSAS

CITY           SKY/WX    TMP DP  RH WIND       PRES   REMARKS
LITTLE ROCK    PTCLDY    74  69  85 CALM      30.06S
N LITTLE ROCK    N/A     75  69  81 S3        30.06S
JACKSONVILLE   CLEAR     71  69  93 VRB1      30.05S
SEARCY         CLEAR     71  71 100 CALM      30.08S FOG
HOT SPRINGS    CLEAR     70  67  90 CALM      30.07S
RUSSELLVILLE   CLEAR     68  66  93 CALM      30.06F
$$

ARZ036-020900-
EAST ARKANSAS

CITY           SKY/WX    TMP DP  RH WIND       PRES   REMARKS
WEST MEMPHIS   MOCLDY    73  73 100 CALM      30.06R
$$

ARZ050-053-066-070-073-020900-
SOUTHWEST ARKANSAS

CITY           SKY/WX    TMP DP  RH WIND       PRES   REMARKS
ARKADELPHIA    FAIR      68  68 100 CALM      30.06F
CAMDEN         FOG       68  66  94 CALM      30.06R VSB 1/2
TEXARKANA      CLEAR     71  69  93 CALM      30.06S
EL DORADO      PTCLDY    70  68  93 NW3       30.06S
DE QUEEN       CLEAR     68  68 100 CALM      30.05S FOG
$$

ARZ056-057-069-020900-
SOUTHEAST ARKANSAS

CITY           SKY/WX    TMP DP  RH WIND       PRES   REMARKS
PINE BLUFF     PTCLDY    71  69  93 CALM      30.06S
STUTTGART      PTCLDY    75  68  78 E3        30.06S
MONTICELLO     CLOUDY    75  72  90 CALM      30.05S

$$





USA.gov is the U.S. government's official web portal to all federal, state and local government web resources and services.